Welcome to the New NWS' Forecast!
Most changes are behind the scenes, but click here for differences you might notice.

Terminal Aerodrome Forecast (TAF)

Issued by National Weather Service (NWS)

                            
355 
FTUS42 KKEY 151724
TAFMTH
TAF
KMTH 151724Z 1518/1618 11012KT P6SM SCT025 SCT250=